{"data":{"norad_id":48210,"epoch":"2026-09-20T00:29:42.280800Z","epoch_age_seconds":59580,"freshness":"FRESH","line1":"1 48210U 21031A   26263.02062825  .00000251  00000+0  64134-3 0  9994","line2":"2 48210  87.8897 270.7831 0001854  89.1224 271.0118 13.14502239260778","mean_motion":13.14502239,"eccentricity":0.0001854,"inclination_deg":87.8897,"raan_deg":270.7831,"arg_perigee_deg":89.1224,"mean_anomaly_deg":271.0118,"bstar":0.00064134,"rev_number":26077,"period_min":109.54716981657,"perigee_km":1204.3864518786,"apogee_km":1207.1985729418,"semimajor_km":7583.9295124102,"source":"CELESTRAK","updated_at":"2026-09-20T09:00:44.591897Z"}}